Time,TemperatureF,DewpointF,PressureIn,WindDirection,WindDirectionDegrees,WindSpeedMPH,WindSpeedGustMPH,Humidity,HourlyPrecipIn,Conditions,Clouds,dailyrainin,SoftwareType,DateUTC
2013-10-15 00:00:00,54.3,53.8,30.25,NE,37,0.0,2.0,98,0.00,,SKC,0.00,VWS V14.01,2013-10-15 04:00:00,
2013-10-15 00:30:00,54.3,53.5,30.25,NE,55,0.0,2.0,97,0.00,,SKC,0.00,VWS V14.01,2013-10-15 04:30:00,
2013-10-15 01:00:00,54.0,53.2,30.25,SSE,165,0.0,2.0,97,0.00,,SKC,0.00,VWS V14.01,2013-10-15 05:00:00,
2013-10-15 01:30:00,53.5,52.4,30.24,NNW,334,0.0,1.0,96,0.00,,SKC,0.00,VWS V14.01,2013-10-15 05:30:00,
2013-10-15 02:00:00,51.8,51.0,30.24,SSE,168,0.0,1.0,97,0.00,,SKC,0.00,VWS V14.01,2013-10-15 06:00:00,
2013-10-15 02:30:00,50.4,50.1,30.24,SSE,168,0.0,0.0,99,0.00,,SKC,0.00,VWS V14.01,2013-10-15 06:30:00,
2013-10-15 03:00:00,50.1,49.8,30.23,SSE,168,0.0,0.0,99,0.00,,SKC,0.00,VWS V14.01,2013-10-15 07:00:00,
2013-10-15 03:30:00,49.5,49.2,30.23,SSE,168,0.0,0.0,99,0.00,,SKC,0.00,VWS V14.01,2013-10-15 07:30:00,
2013-10-15 04:00:00,48.9,48.6,30.22,SSE,168,0.0,0.0,99,0.00,,SKC,0.00,VWS V14.01,2013-10-15 08:00:00,
2013-10-15 04:30:00,47.6,47.3,30.23,South,181,0.0,0.0,99,0.00,,SKC,0.00,VWS V14.01,2013-10-15 08:30:00,
2013-10-15 05:00:00,47.2,46.9,30.21,South,181,0.0,0.0,99,0.00,,SKC,0.00,VWS V14.01,2013-10-15 09:00:00,
2013-10-15 05:30:00,46.9,46.6,30.22,South,191,0.0,0.0,99,0.00,,SKC,0.00,VWS V14.01,2013-10-15 09:30:00,
2013-10-15 06:00:00,46.4,46.1,30.22,South,190,0.0,0.0,99,0.00,,SKC,0.00,VWS V14.01,2013-10-15 10:00:00,
2013-10-15 06:30:00,45.2,44.9,30.22,South,191,0.0,0.0,99,0.00,,SKC,0.00,VWS V14.01,2013-10-15 10:30:00,
2013-10-15 07:00:00,43.7,43.4,30.22,South,191,0.0,0.0,99,0.00,,SKC,0.00,VWS V14.01,2013-10-15 11:00:00,
2013-10-15 07:30:00,42.8,42.5,30.23,South,191,0.0,0.0,99,0.00,,SKC,0.00,VWS V14.01,2013-10-15 11:30:00,
2013-10-15 08:00:00,42.2,41.9,30.24,SSW,192,0.0,0.0,99,0.00,,SKC,0.00,VWS V14.01,2013-10-15 12:00:00,
2013-10-15 08:30:00,43.2,43.2,30.25,South,191,0.0,0.0,100,0.00,,SKC,0.00,VWS V14.01,2013-10-15 12:30:00,
2013-10-15 09:00:00,47.7,47.7,30.24,South,191,0.0,0.0,100,0.00,,SKC,0.00,VWS V14.01,2013-10-15 13:00:00,
2013-10-15 09:30:00,51.8,50.4,30.25,South,181,0.0,0.0,95,0.00,,SKC,0.00,VWS V14.01,2013-10-15 13:30:00,
2013-10-15 10:00:00,56.7,54.7,30.24,ESE,122,0.0,1.0,93,0.00,,SKC,0.00,VWS V14.01,2013-10-15 14:00:00,
2013-10-15 10:30:00,57.5,52.7,30.23,SSE,148,1.0,3.0,84,0.00,,SKC,0.00,VWS V14.01,2013-10-15 14:30:00,
2013-10-15 11:00:00,59.7,52.8,30.22,East,82,2.0,5.0,78,0.00,,SKC,0.00,VWS V14.01,2013-10-15 15:00:00,
2013-10-15 11:30:00,61.6,53.6,30.22,SE,146,0.0,4.0,75,0.00,,SKC,0.00,VWS V14.01,2013-10-15 15:30:00,
2013-10-15 12:00:00,62.6,53.8,30.21,ESE,105,1.0,5.0,73,0.00,,SKC,0.00,VWS V14.01,2013-10-15 16:00:00,
2013-10-15 12:30:00,63.7,54.9,30.21,NW,319,0.0,5.0,73,0.00,,SKC,0.00,VWS V14.01,2013-10-15 16:30:00,
2013-10-15 13:00:00,64.9,48.8,30.20,SSE,150,3.0,5.0,56,0.00,,SKC,0.00,VWS V14.01,2013-10-15 17:00:00,
2013-10-15 13:30:00,63.4,51.0,30.19,SSW,202,0.0,4.0,64,0.00,,SKC,0.00,VWS V14.01,2013-10-15 17:30:00,
2013-10-15 14:00:00,61.6,51.7,30.17,NW,305,0.0,4.0,70,0.00,,SKC,0.00,VWS V14.01,2013-10-15 18:00:00,
2013-10-15 14:30:00,62.2,51.1,30.16,East,82,0.0,3.0,67,0.00,,SKC,0.00,VWS V14.01,2013-10-15 18:30:00,
2013-10-15 16:30:00,61.5,50.8,30.14,ESE,108,0.0,2.0,68,0.00,,SKC,0.00,VWS V14.01,2013-10-15 20:30:00,
2013-10-15 17:00:00,61.6,50.5,30.14,West,278,0.0,2.0,67,0.00,,SKC,0.00,VWS V14.01,2013-10-15 21:00:00,
2013-10-15 17:30:00,61.1,53.1,30.14,WNW,283,0.0,1.0,75,0.00,,SKC,0.00,VWS V14.01,2013-10-15 21:30:00,
2013-10-15 18:00:00,59.0,52.5,30.14,WNW,283,0.0,0.0,79,0.00,,SKC,0.00,VWS V14.01,2013-10-15 22:00:00,
2013-10-15 18:30:00,57.5,52.7,30.14,WNW,283,0.0,0.0,84,0.00,,SKC,0.00,VWS V14.01,2013-10-15 22:30:00,
2013-10-15 19:00:00,55.1,51.6,30.15,WNW,283,0.0,0.0,88,0.00,,SKC,0.00,VWS V14.01,2013-10-15 23:00:00,
2013-10-15 19:30:00,53.0,50.5,30.15,WNW,283,0.0,0.0,91,0.00,,SKC,0.00,VWS V14.01,2013-10-15 23:30:00,
2013-10-15 20:00:00,51.5,49.5,30.15,WNW,283,0.0,0.0,93,0.00,,SKC,0.00,VWS V14.01,2013-10-16 00:00:00,
2013-10-15 20:30:00,50.3,48.9,30.15,WNW,283,0.0,0.0,95,0.00,,SKC,0.00,VWS V14.01,2013-10-16 00:30:00,
2013-10-15 21:00:00,49.1,48.3,30.15,WNW,283,0.0,0.0,97,0.00,,SKC,0.00,VWS V14.01,2013-10-16 01:00:00,
2013-10-15 21:30:00,49.1,48.3,30.16,WNW,283,0.0,0.0,97,0.00,,SKC,0.00,VWS V14.01,2013-10-16 01:30:00,
2013-10-15 22:00:00,49.4,48.9,30.16,WNW,283,0.0,1.0,98,0.00,,SKC,0.00,VWS V14.01,2013-10-16 02:00:00,
2013-10-15 22:30:00,51.1,49.7,30.16,West,279,1.0,1.0,95,0.00,,SKC,0.00,VWS V14.01,2013-10-16 02:30:00,
2013-10-15 23:00:00,51.1,50.0,30.16,West,280,0.0,1.0,96,0.00,,SKC,0.00,VWS V14.01,2013-10-16 03:00:00,
2013-10-15 23:30:00,51.9,50.5,30.16,WNW,300,0.0,2.0,95,0.00,,SKC,0.00,VWS V14.01,2013-10-16 03:30:00,